User: anonymous   Login
Location: Marcé
(47.5801°N, 0.3280°W)
Time: 01:33:17
(UTC+01:00)
Language:

SR - Orbit

View from above orbital plane
View from above orbital plane
View from above satellite
View from above satellite

Ground track
Ground track

The orbit data is extracted from the following two-line orbital elements,

1 00046U 60007B   21333.49288668  .00000115  00000-0  46199-4 0  9996
2 00046  66.6918  54.1592 0202454  96.2817 266.1392 14.49475647215923
Epoch (UTC): 29 November 2021 11:49:45
Eccentricity: 0.0202454
inclination: 66.6918°
perigee height: 583 km
apogee height: 871 km
right ascension of ascending node: 54.1592°
argument of perigee: 96.2817°
revolutions per day: 14.49475647
mean anomaly at epoch: 266.1392°
orbit number at epoch: 21592

The dashed part of the orbit path shows where the satellite is in the earth's shadow,  

DLR